Location: Ahausen
(50.4985°N, 8.2722°E)
Time: 06:48:09
(UTC+00:00)

YUBILEINY - Pass Details

Date: 08 July 2022
Orbit: 1478 x 1509 km, 82.5° (Epoch: 07 August)

Event Time Altitude Azimuth Distance (km) Brightness Sun altitude
Rises 01:59:32 0° 349° (N) 4,652 ? -10.1°
Reaches altitude 10° 02:02:37 10° 355° (N) 3,664 ? -9.8°
Maximum altitude 02:11:06 49° 69° (ENE) 1,871 ? -9.0°
Drops below altitude 10° 02:19:28 10° 143° (SE) 3,623 ? -8.2°
Sets 02:22:28 0° 148° (SSE) 4,596 ? -7.9°
